Погода в Задних Яндоушах

Россия / Чувашская Республика     55°40′41″N   47°34′01″E
темп.,
°C
ветер,
м/с
пор.,
м/с
влажн.,
%
обл.,
%
осадки,
мм/ч
давл.,
гПа
погр.,
м
11 мая, вт
вт1100:00+12ссв61195100 0.7 1023285
03:00+10ссв51097100 0.7 1024213
06:00+12ссв51095100 0.0 1024256
09:00+16св578097 0.0 1025466
12:00+21всв4459100 0.0 1026894
15:00+23всв455368 0.0 10261238
18:00+21всв3467100 0.0 102667
21:00+16всв3480100 0.0 102760
12 мая, ср
ср1200:00+14св368899 0.1 102790
03:00+13всв23924 0.1 102740
06:00+16в268010 0.0 1027164
09:00+20вюв57555 0.0 1027570
12:00+23юв47489 0.0 10271804
15:00+22ююв475698 0.0 10271327
18:00+20ю2463100 0.0 1027121
21:00+16юв226095 0.0 102715
13 мая, чт
чт1300:00+14юв226086 0.0 102715
03:00+15вюв236297 0.0 102636
06:00+15вюв3670100 0.0 1026148
09:00+19вюв596140 0.0 1026623
12:00+22юв794787 0.0 10251248
15:00+20ююв4959100 0.0 1024548
18:00+18вюв5126595 0.0 1023354
21:00+17вюв5136993 0.0 1022264
14 мая, пт
пт1400:00+15юв4977100 0.1 1022174
03:00+14юв498051 0.5 1022159
06:00+15юв497520 0.0 1022279
09:00+20ю465838 0.0 1021508
12:00+24ю4654100 0.0 10211072
15:00+25ю565263 0.0 10211571
18:00+23ююв38635 0.0 1020199
21:00+19ю336684 0.0 102038
15 мая, сб
сб1500:00+16ююв37732 0.0 1019106
03:00+15ю35715 0.0 102078
06:00+17ююв310705 0.0 1019233
09:00+22ю610525 0.0 1018452
12:00+26ю7104211 0.0 10181126
15:00+26ю610425 0.0 10171147
18:00+23ю512535 0.0 1016306
21:00+18ююв4136548 0.0 1016191